114P/Wiseman-Skiff (2013)

Japanese version
Home page
Updated on February 23, 2014

---------------------------------------------------------------------

* Profile

* Pictures

* Orbital Elements

Epoch 2013 June 1.0 TT = JDT 2456444.5
T 2013 May 13.89622 TT                                  MPC
q   1.5748647            (2000.0)            P               Q
n   0.14775237     Peri.  172.84519     +0.09997792     -0.94425195
a   3.5436140      Node   271.05475     +0.89663772     +0.22216494
e   0.5555767      Incl.   18.28412     +0.43132960     -0.24296297
P   6.67
From 408 observations 1987 Jan. 19-2013 Feb. 10, mean residual 0".8.
     Nongravitational parameters A1 = +0.23, A2 = +0.0024.

* Finding Charts

* Magnitudes Graph

        m1 = 11.0 + 5 log d + 20.0 log r

---------------------------------------------------------------------

The orbital elements are published on M.P.E.C. 2013-D50.
The charts are made with StellaNavigator Ver.8 (AstroArts).
The magnitudes graphs are made with Comet for Windows.

---------------------------------------------------------------------

Copyright(C) Seiichi Yoshida (comet@aerith.net). All rights reserved.